Pittsfield, IL

4:19 AM CDT on May 26, 2017 (GMT -0500)
Pittsfield Penstone Municipal

Weather History for KPPQ - January, 2006

Change the Weather History Date:

Saturday, January 28, 2006

  Actual Average (KUIN) Record (KUIN)
Temperature  
Mean Temperature 48 °F -  
Max Temperature 51 °F 32 °F 66 °F (2013)
Min Temperature 44 °F 16 °F -15 °F (1915)
Degree Days  
Heating Degree Days 18    
Moisture  
Dew Point 40 °F    
Average Humidity 75    
Maximum Humidity 100    
Minimum Humidity 41    
Precipitation  
Precipitation 0.36 in - - ()
Sea Level Pressure  
Sea Level Pressure 30.00 in    
Wind  
Wind Speed 10 mph (ESE)    
Max Wind Speed 22 mph    
Max Gust Speed 28 mph    
Visibility 8 miles    
Events Rain    
Averages and records for this station are not official NWS values.
T = Trace of Precipitation, MM = Missing Value Source: NWS Daily Summary

Daily Weather History Graph

Daily Weather History Graph

Search for Another Location

Airport or City:

Trip Planner

Search our weather history database for the weather conditions in past years. The results will help you decide how hot, cold, wet, or windy it might be!

Date:

Astronomy

Jan. 28, 2006 Rise Set
Actual Time 7:14 AM CST 5:18 PM CST
Civil Twilight 6:45 AM CST 5:47 PM CST
Nautical Twilight 6:13 AM CST 6:19 PM CST
Astronomical Twilight 5:41 AM CST 6:51 PM CST
Moon 6:55 AM CST (1/28) 4:10 PM CST (1/28)
Length of Visible Light 11h 01m
Length of Day
10h 03m
Waning Crescent, 1% of the Moon is Illuminated
Jan 28
Waning Crescent
Jan 29
New
Feb 5
First Quarter
Feb 12
Full
Feb 21
Last Quarter

Hourly Weather History & Observations

Time (CST) Temp. Windchill Dew Point Humidity Pressure Visibility Wind Dir Wind Speed Gust Speed Precip Events Conditions
12:02 AM 51.8 °F - 28.4 °F 41% 30.18 in 10.0 mi WSW 9.2 mph - N/A   Overcast
12:22 AM 50.0 °F - 28.4 °F 43% 30.17 in 10.0 mi SW 9.2 mph - N/A   Overcast
12:44 AM 50.0 °F - 28.4 °F 43% 30.17 in 10.0 mi WSW 8.1 mph - N/A   Overcast
1:02 AM 50.0 °F - 28.4 °F 43% 30.17 in 10.0 mi South 8.1 mph - N/A   Overcast
1:22 AM 51.8 °F - 28.4 °F 41% 30.17 in 10.0 mi SW 8.1 mph - N/A   Overcast
1:42 AM 50.0 °F - 30.2 °F 47% 30.17 in 10.0 mi ESE 10.4 mph - N/A   Overcast
2:02 AM 50.0 °F - 30.2 °F 47% 30.17 in 10.0 mi SE 10.4 mph - N/A   Overcast
2:22 AM 48.2 °F - 33.8 °F 58% 30.16 in 7.0 mi East 10.4 mph - 0.01 in Rain Rain
2:42 AM 48.2 °F - 33.8 °F 58% 30.16 in 10.0 mi SSE 9.2 mph - N/A   Overcast
3:02 AM 48.2 °F - 33.8 °F 58% 30.15 in 10.0 mi ESE 10.4 mph - N/A Rain Light Rain
3:22 AM 48.2 °F - 32.0 °F 54% 30.15 in 10.0 mi SSE 10.4 mph - N/A   Overcast
3:42 AM 48.2 °F - 32.0 °F 54% 30.14 in 10.0 mi WSW 9.2 mph - N/A   Overcast
4:02 AM 48.2 °F - 32.0 °F 54% 30.14 in 10.0 mi South 6.9 mph - N/A   Overcast
4:23 AM 48.2 °F - 32.0 °F 54% 30.13 in 10.0 mi East 8.1 mph - N/A   Overcast
4:42 AM 48.2 °F - 32.0 °F 54% 30.12 in 10.0 mi ESE 9.2 mph - N/A   Overcast
5:02 AM 48.2 °F - 32.0 °F 54% 30.11 in 10.0 mi ESE 8.1 mph - N/A   Overcast
5:22 AM 48.2 °F - 33.8 °F 58% 30.11 in 10.0 mi East 8.1 mph - N/A Rain Light Rain
5:43 AM 48.2 °F - 35.6 °F 62% 30.10 in 10.0 mi East 4.6 mph - N/A   Overcast
6:02 AM 46.4 °F 45.2 °F 35.6 °F 66% 30.09 in 10.0 mi ESE 3.5 mph - N/A   Overcast
6:22 AM 46.4 °F 42.4 °F 35.6 °F 66% 30.09 in 10.0 mi ESE 8.1 mph - N/A   Mostly Cloudy
6:42 AM 46.4 °F 42.4 °F 33.8 °F 62% 30.08 in 10.0 mi ESE 8.1 mph - N/A   Overcast
7:03 AM 46.4 °F 41.1 °F 33.8 °F 62% 30.08 in 10.0 mi ESE 11.5 mph - N/A   Overcast
7:22 AM 46.4 °F 42.4 °F 33.8 °F 62% 30.08 in 10.0 mi ESE 8.1 mph - N/A   Overcast
7:43 AM 46.4 °F 41.9 °F 33.8 °F 62% 30.08 in 10.0 mi East 9.2 mph - N/A   Overcast
8:02 AM 46.4 °F 43.5 °F 35.6 °F 66% 30.08 in 10.0 mi SSE 5.8 mph - N/A   Overcast
8:22 AM 48.2 °F - 33.8 °F 58% 30.08 in 10.0 mi SSE 8.1 mph - N/A   Overcast
8:42 AM 48.2 °F - 37.4 °F 66% 30.07 in 10.0 mi SE 8.1 mph - N/A   Light Drizzle
9:02 AM 48.2 °F - 39.2 °F 71% 30.06 in 10.0 mi ESE 13.8 mph - N/A Rain Light Rain
9:24 AM 46.4 °F 40.1 °F 42.8 °F 87% 30.06 in 5.0 mi SE 15.0 mph - 0.04 in Rain Rain
9:42 AM 46.4 °F 41.1 °F 44.6 °F 93% 30.04 in 7.0 mi East 11.5 mph - N/A Rain Rain
10:02 AM 46.4 °F 40.7 °F 44.6 °F 93% 30.03 in 7.0 mi East 12.7 mph - 0.01 in Rain Rain
10:22 AM 46.4 °F 41.9 °F 44.6 °F 93% 30.00 in 7.0 mi ESE 9.2 mph - 0.03 in Rain Rain
10:42 AM 46.4 °F 41.9 °F 44.6 °F 93% 30.01 in 7.0 mi ESE 9.2 mph - 0.05 in Rain Rain
11:02 AM 44.6 °F 39.2 °F 44.6 °F 100% 30.00 in 3.0 mi ESE 10.4 mph - 0.04 in Rain Rain
11:22 AM 44.6 °F 39.7 °F 44.6 °F 100% 29.98 in 4.0 mi ESE 9.2 mph - 0.08 in Rain Rain
11:42 AM 46.4 °F 42.4 °F 44.6 °F 93% 29.97 in 3.0 mi ESE 8.1 mph - N/A Rain Rain
12:02 PM 46.4 °F 40.4 °F 46.4 °F 100% 29.96 in 3.0 mi East 13.8 mph - 0.02 in Rain Rain
12:22 PM 48.2 °F - 46.4 °F 93% 29.94 in 5.0 mi East 15.0 mph - 0.05 in Rain Light Rain
12:42 PM 48.2 °F - 46.4 °F 93% 29.92 in 5.0 mi East 16.1 mph 19.6 mph N/A Rain Rain
1:02 PM 48.2 °F - 46.4 °F 93% 29.91 in 4.0 mi East 13.8 mph 20.7 mph 0.01 in Rain Light Rain
1:22 PM 48.2 °F - 46.4 °F 93% 29.89 in 4.0 mi East 12.7 mph 18.4 mph 0.03 in Rain Light Rain
1:42 PM 48.2 °F - 46.4 °F 93% 29.88 in 5.0 mi East 15.0 mph - N/A Rain Light Rain
2:03 PM 48.2 °F - 48.2 °F 100% 29.87 in 4.0 mi ESE 12.7 mph 16.1 mph 0.01 in Rain Light Rain
2:22 PM 48.2 °F - 48.2 °F 100% 29.85 in 4.0 mi East 10.4 mph - 0.02 in Rain Light Rain
2:43 PM 48.2 °F - 48.2 °F 100% 29.84 in 4.0 mi East 12.7 mph 17.3 mph N/A Rain Light Rain
3:02 PM 48.2 °F - 48.2 °F 100% 29.83 in 4.0 mi ESE 11.5 mph - 0.01 in Rain Light Rain
3:24 PM 50.0 °F - 48.2 °F 94% 29.81 in 3.0 mi East 9.2 mph - 0.03 in Rain Light Rain
3:42 PM 48.2 °F - 48.2 °F 100% 29.80 in 3.0 mi ESE 13.8 mph - 0.05 in Rain Light Rain
4:02 PM 50.0 °F - 48.2 °F 94% 29.79 in 3.0 mi East 16.1 mph 20.7 mph 0.01 in Rain Rain
4:22 PM 51.8 °F - 50.0 °F 94% 29.78 in 4.0 mi East 12.7 mph - N/A Rain Light Rain
4:42 PM 51.8 °F - 50.0 °F 94% 29.76 in 5.0 mi East 15.0 mph - N/A Rain Light Rain
5:02 PM 51.8 °F - 50.0 °F 94% 29.75 in 10.0 mi ESE 17.3 mph 27.6 mph N/A Rain Rain
5:22 PM 51.8 °F - 50.0 °F 94% 29.73 in 10.0 mi East 18.4 mph 24.2 mph N/A Rain Light Rain
5:42 PM 51.8 °F - 50.0 °F 94% 29.73 in 10.0 mi East 19.6 mph 24.2 mph N/A Rain Light Rain
6:02 PM 51.8 °F - 50.0 °F 94% 29.72 in 7.0 mi ESE 21.9 mph 26.5 mph 0.01 in Rain Light Rain
6:23 PM 51.8 °F - 50.0 °F 94% 29.71 in 7.0 mi ESE 13.8 mph 20.7 mph 0.02 in Rain Light Rain
6:42 PM 51.8 °F - 50.0 °F 94% 29.70 in 5.0 mi ESE 15.0 mph 19.6 mph N/A Rain Light Rain
7:02 PM 50.0 °F - 50.0 °F 100% 29.69 in 5.0 mi ESE 12.7 mph - N/A Rain Rain
7:22 PM 50.0 °F - 50.0 °F 100% 29.67 in 7.0 mi ESE 11.5 mph 20.7 mph 0.01 in Rain Rain
7:43 PM 50.0 °F - 50.0 °F 100% 29.65 in 7.0 mi ESE 10.4 mph - N/A   Light Drizzle
8:02 PM 51.8 °F - 50.0 °F 94% 29.63 in 7.0 mi ESE 6.9 mph - N/A   Overcast
8:22 PM 51.8 °F - 50.0 °F 94% 29.63 in 10.0 mi ESE 4.6 mph - N/A   Overcast
8:42 PM 51.8 °F - 50.0 °F 94% 29.63 in 10.0 mi SW 3.5 mph - N/A Rain Light Rain
9:02 PM 51.8 °F - 50.0 °F 94% 29.61 in 10.0 mi SW 8.1 mph - N/A   Overcast
9:22 PM 51.8 °F - 50.0 °F 94% 29.60 in 10.0 mi South 9.2 mph - N/A   Light Drizzle
9:42 PM 51.8 °F - 50.0 °F 94% 29.59 in 7.0 mi Calm Calm - N/A   Overcast
10:02 PM 51.8 °F - 50.0 °F 94% 29.58 in 7.0 mi Calm Calm - N/A   Overcast
10:22 PM 50.0 °F - 48.2 °F 94% 29.56 in 7.0 mi East 3.5 mph - N/A   Overcast
10:42 PM 50.0 °F - 48.2 °F 94% 29.55 in 5.0 mi Calm Calm - N/A   Overcast
11:02 PM 50.0 °F - 48.2 °F 94% 29.55 in 4.0 mi ESE 3.5 mph - N/A   Overcast
11:22 PM 50.0 °F - 48.2 °F 94% 29.53 in 4.0 mi Calm Calm - N/A Rain Light Rain
11:42 PM 50.0 °F - 48.2 °F 94% 29.53 in 4.0 mi South 3.5 mph - N/A   Overcast